User: anonymous   Login
Location: Columbia
(38.9520°N, 92.3340°W)
Time: 10:19:11
(UTC-06:00)
Language:

Cosmos 1633 - Orbit

View from above orbital plane
View from above orbital plane
View from above satellite
View from above satellite

Ground track
Ground track

The orbit data is extracted from the following two-line orbital elements,

1 15592U 85020A   18053.13669208  .00001199  00000-0  40810-4 0  9996
2 15592  82.5356  68.7324 0013911  20.1851 339.9936 15.29287643802486
Epoch (UTC): 22 February 2018 03:16:50
Eccentricity: 0.0013911
inclination: 82.5356°
perigee height: 468 km
apogee height: 487 km
right ascension of ascending node: 68.7324°
argument of perigee: 20.1851°
revolutions per day: 15.29287643
mean anomaly at epoch: 339.9936°
orbit number at epoch: 80248

The dashed part of the orbit path shows where the satellite is in the earth's shadow,  

DLR